Hourly Weather a/p Chisinau International Airport

Today, 28 February, Sunday

Time Temperature Precipitation Wind Pressure Humidity
00:00 +2°C° 0 mm 6 mps 764 mmHg 85%
01:00 +2°C° 0 mm 7 mps 764 mmHg 86%
02:00 +2°C° 0 mm 7 mps 765 mmHg 85%
03:00 0°C° 0.1 mm 7 mps 765 mmHg 85%
04:00 +1°C° 0.1 mm 6 mps 765 mmHg 86%
05:00 +1°C° 0.1 mm 6 mps 765 mmHg 87%
06:00 +1°C° 0.1 mm 6 mps 765 mmHg 88%
07:00 +1°C° 0.1 mm 6 mps 766 mmHg 88%
08:00 0°C° 0 mm 7 mps 766 mmHg 90%
09:00 0°C° 0.1 mm 7 mps 766 mmHg 87%
10:00 0°C° 0.1 mm 7 mps 766 mmHg 84%
11:00 0°C° 0.1 mm 7 mps 766 mmHg 82%
12:00 +2°C° 0 mm 7 mps 766 mmHg 76%
13:00 +3°C° 0 mm 7 mps 766 mmHg 70%
14:00 +3°C° 0 mm 7 mps 766 mmHg 63%
15:00 +3°C° 0 mm 7 mps 765 mmHg 64%
16:00 +3°C° 0 mm 6 mps 765 mmHg 64%
17:00 +3°C° 0 mm 6 mps 765 mmHg 64%
18:00 +2°C° 0 mm 5 mps 765 mmHg 67%
19:00 +3°C° 0 mm 4 mps 765 mmHg 70%
20:00 +2°C° 0 mm 3 mps 765 mmHg 73%
21:00 +2°C° 0 mm 3 mps 765 mmHg 78%
22:00 +1°C° 0 mm 4 mps 765 mmHg 83%
23:00 +1°C° 0 mm 4 mps 765 mmHg 88%

Tomorrow, 1 March, Monday

Time Temperature Precipitation Wind Pressure Humidity
00:00 +1°C° 0.7 mm 5 mps 765 mmHg 90%
01:00 +1°C° 0.7 mm 5 mps 764 mmHg 93%
02:00 +1°C° 0.7 mm 5 mps 764 mmHg 96%
03:00 +1°C° 0.6 mm 5 mps 764 mmHg 96%
04:00 +1°C° 0.6 mm 5 mps 764 mmHg 96%
05:00 +1°C° 0.6 mm 5 mps 764 mmHg 96%
06:00 +1°C° 0.1 mm 5 mps 764 mmHg 96%
07:00 +1°C° 0.1 mm 5 mps 765 mmHg 96%
08:00 +1°C° 0.1 mm 5 mps 765 mmHg 96%
09:00 +1°C° 0 mm 5 mps 766 mmHg 93%
10:00 +2°C° 0 mm 5 mps 766 mmHg 90%
11:00 +3°C° 0 mm 4 mps 767 mmHg 88%
12:00 +3°C° 0.1 mm 4 mps 767 mmHg 86%
13:00 +3°C° 0.1 mm 4 mps 768 mmHg 84%
14:00 +3°C° 0.1 mm 4 mps 768 mmHg 83%
15:00 +3°C° 0 mm 4 mps 769 mmHg 81%
16:00 +3°C° 0 mm 4 mps 769 mmHg 79%
17:00 +3°C° 0 mm 4 mps 769 mmHg 76%
18:00 +3°C° 0 mm 3 mps 770 mmHg 79%
19:00 +2°C° 0 mm 3 mps 770 mmHg 82%
20:00 +2°C° 0 mm 3 mps 771 mmHg 85%
21:00 +3°C° 0 mm 2 mps 771 mmHg 85%
22:00 +3°C° 0 mm 2 mps 771 mmHg 84%
23:00 +3°C° 0 mm 2 mps 771 mmHg 83%

Day after tomorrow, 2 March, Tuesday

Time Temperature Precipitation Wind Pressure Humidity
00:00 +3°C° 0 mm 2 mps 771 mmHg 83%
01:00 +3°C° 0 mm 2 mps 771 mmHg 82%
02:00 +3°C° 0 mm 2 mps 772 mmHg 81%
03:00 +2°C° 0 mm 2 mps 771 mmHg 81%
04:00 +2°C° 0 mm 2 mps 771 mmHg 81%
05:00 +2°C° 0 mm 2 mps 770 mmHg 81%
06:00 +2°C° 0 mm 2 mps 770 mmHg 81%
07:00 +2°C° 0 mm 2 mps 770 mmHg 80%
08:00 +2°C° 0 mm 2 mps 770 mmHg 79%
09:00 +3°C° 0 mm 3 mps 770 mmHg 75%
10:00 +4°C° 0 mm 3 mps 769 mmHg 71%
11:00 +5°C° 0 mm 4 mps 769 mmHg 67%
12:00 +6°C° 0 mm 5 mps 768 mmHg 64%
13:00 +7°C° 0 mm 5 mps 768 mmHg 60%
14:00 +8°C° 0 mm 5 mps 767 mmHg 57%
15:00 +8°C° 0 mm 5 mps 767 mmHg 56%
16:00 +8°C° 0 mm 5 mps 766 mmHg 55%
17:00 +8°C° 0 mm 5 mps 765 mmHg 53%
18:00 +8°C° 0 mm 5 mps 765 mmHg 57%
19:00 +7°C° 0 mm 5 mps 765 mmHg 61%
20:00 +6°C° 0 mm 5 mps 765 mmHg 64%
21:00 +6°C° 0 mm 5 mps 765 mmHg 67%
22:00 +5°C° 0 mm 6 mps 765 mmHg 70%
23:00 +4°C° 0 mm 6 mps 765 mmHg 72%

3 March, Wednesday

Time Temperature Precipitation Wind Pressure Humidity
00:00 +4°C° 0 mm 6 mps 765 mmHg 74%
01:00 +3°C° 0 mm 6 mps 766 mmHg 76%
02:00 +3°C° 0 mm 5 mps 766 mmHg 78%
03:00 +3°C° 0 mm 6 mps 766 mmHg 77%
04:00 +3°C° 0 mm 6 mps 766 mmHg 76%
05:00 +3°C° 0 mm 6 mps 767 mmHg 75%
06:00 +3°C° 0 mm 6 mps 767 mmHg 72%
07:00 +3°C° 0 mm 5 mps 768 mmHg 69%
08:00 +3°C° 0 mm 5 mps 768 mmHg 66%
09:00 +5°C° 0 mm 5 mps 768 mmHg 63%
10:00 +5°C° 0 mm 5 mps 768 mmHg 60%
11:00 +6°C° 0 mm 5 mps 769 mmHg 56%
12:00 +7°C° 0 mm 5 mps 768 mmHg 54%
13:00 +7°C° 0 mm 5 mps 768 mmHg 51%
14:00 +8°C° 0 mm 4 mps 768 mmHg 49%
15:00 +8°C° 0 mm 4 mps 768 mmHg 49%
16:00 +8°C° 0 mm 3 mps 768 mmHg 49%
17:00 +8°C° 0 mm 3 mps 767 mmHg 48%
18:00 +7°C° 0 mm 2 mps 768 mmHg 53%
19:00 +7°C° 0 mm 1 mps 768 mmHg 57%
20:00 +5°C° 0 mm 0 mps 768 mmHg 61%
21:00 +5°C° 0 mm 0 mps 768 mmHg 62%
22:00 +5°C° 0 mm 1 mps 767 mmHg 63%
23:00 +5°C° 0 mm 1 mps 767 mmHg 65%

4 March, Thursday

Time Temperature Precipitation Wind Pressure Humidity
00:00 +5°C° 0 mm 1 mps 767 mmHg 67%
01:00 +4°C° 0 mm 1 mps 766 mmHg 68%
02:00 +3°C° 0 mm 2 mps 766 mmHg 70%
03:00 +3°C° 0 mm 2 mps 765 mmHg 72%
04:00 +2°C° 0 mm 2 mps 765 mmHg 73%
05:00 +2°C° 0 mm 2 mps 764 mmHg 75%
06:00 +1°C° 0 mm 3 mps 764 mmHg 74%
07:00 +1°C° 0 mm 4 mps 763 mmHg 73%
08:00 +1°C° 0 mm 4 mps 763 mmHg 72%
09:00 +3°C° 0 mm 5 mps 762 mmHg 69%
10:00 +5°C° 0 mm 6 mps 761 mmHg 66%
11:00 +8°C° 0 mm 6 mps 761 mmHg 63%
12:00 +9°C° 0 mm 6 mps 760 mmHg 59%
13:00 +10°C° 0 mm 6 mps 759 mmHg 56%
14:00 +11°C° 0 mm 6 mps 759 mmHg 53%
15:00 +12°C° 0 mm 5 mps 758 mmHg 53%
16:00 +12°C° 0 mm 4 mps 757 mmHg 53%
17:00 +12°C° 0 mm 3 mps 757 mmHg 53%
18:00 +11°C° 0 mm 3 mps 757 mmHg 57%
19:00 +10°C° 0 mm 2 mps 756 mmHg 62%
20:00 +8°C° 0 mm 2 mps 756 mmHg 67%
21:00 +8°C° 0 mm 2 mps 756 mmHg 70%
22:00 +7°C° 0 mm 2 mps 756 mmHg 73%
23:00 +8°C° 0 mm 1 mps 756 mmHg 76%

5 March, Friday

Time Temperature Precipitation Wind Pressure Humidity
00:00 +7°C° 0 mm 1 mps 756 mmHg 77%
01:00 +7°C° 0 mm 1 mps 756 mmHg 77%
02:00 +6°C° 0 mm 0 mps 755 mmHg 77%
03:00 +5°C° 0 mm 0 mps 755 mmHg 77%
04:00 +5°C° 0 mm 0 mps 755 mmHg 77%
05:00 +5°C° 0 mm 0 mps 755 mmHg 77%
06:00 +5°C° 0 mm 0 mps 755 mmHg 75%
07:00 +6°C° 0 mm 0 mps 755 mmHg 73%
08:00 +7°C° 0 mm 1 mps 755 mmHg 71%
09:00 +9°C° 0 mm 1 mps 754 mmHg 63%
10:00 +10°C° 0 mm 2 mps 754 mmHg 54%
11:00 +13°C° 0 mm 2 mps 754 mmHg 46%
12:00 +14°C° 0 mm 2 mps 753 mmHg 42%
13:00 +14°C° 0 mm 3 mps 753 mmHg 39%
14:00 +16°C° 0 mm 3 mps 753 mmHg 35%
15:00 +16°C° 0 mm 3 mps 752 mmHg 37%
16:00 +15°C° 0 mm 2 mps 752 mmHg 39%
17:00 +15°C° 0 mm 2 mps 752 mmHg 41%
18:00 +13°C° 0 mm 3 mps 752 mmHg 44%
19:00 +12°C° 0 mm 3 mps 752 mmHg 47%
20:00 +11°C° 0 mm 4 mps 752 mmHg 49%
21:00 +10°C° 0 mm 4 mps 752 mmHg 54%
22:00 +9°C° 0 mm 5 mps 753 mmHg 59%
23:00 +8°C° 0 mm 6 mps 753 mmHg 64%
Show more

We Need Your Consent

Meteoprog and our Service Providers may store and access personal data such as cookies, device identifiers or other similar technologies on your device and process such data to personalise content and ads, as well as provide social media features and to analyse the traffic.

  • Store and/or access information on your device

    Cookies, device identifiers or other information can be stored or accessed on your device for the purposes indicated above.

  • Personalised ads and content, ad and content measurement, audience insights, and products development

    Ads and content can be personalised based on a profile. More data can be added to better personalise ads and content. Ad and content performance can be measured. Insights about the audience who saw the ads and content can be derived. Such data can be used to develop or improve user’s experience, systems and software.

By clicking ‘I Agree’ you will allow the use of indicated cookies, device identifiers, web beacons or other similar technologies. Your settings can be changed in the browser on your device.

For certain purposes, legitimate interests may be relied on, rather than consent. You can read more about this in our Privacy and Cookie Policy.